#timestamp,LO_Frequency,Hit,StdDev 
1591182015.7,286046984.6,N
1591182035.5,286046982.2,N
1591182055.3,286046979.3,N
1591182075.2,286046980.1,N
1591182095.0,286046975.8,N
1591182095.9,286046975.8,N
1591182115.7,286046978.3,N
1591182135.6,286046979.6,N
1591182155.4,286046981.3,Y
1591182175.3,286046999.8,P
1591182195.1,286047000.6,N
1591182196.0,286047000.6,N
1591182215.8,286046995.4,N
1591182235.7,286046996.2,N
1591182255.5,286046999.1,N
1591182275.3,286047001.2,N
1591182295.2,286046998.2,N
1591182315.0,286046999.4,N
1591182315.9,286046999.4,N
1591182335.8,286046997.8,N
1591182355.6,286046995.6,N
1591182375.4,286046992.8,N
1591182395.3,286046991.2,N
1591182415.1,286046988.8,N
1591182435.8,286046985.4,N
1591182455.7,286046984.7,N
1591182475.5,286046984.9,N
1591182495.4,286046982.0,N
1591182515.2,286046980.2,N
1591182535.0,286046979.0,N
1591182535.9,286046979.0,N
1591182555.8,286046977.4,N
1591182575.6,286046980.3,N
1591182595.4,286046978.1,N
1591182615.3,286046979.8,N
1591182635.1,286046983.0,N
1591182655.9,286046983.9,N
1591182675.7,286046985.3,N
1591182695.5,286046986.5,N
1591182715.4,286046988.0,N
1591182735.2,286046988.3,N
1591182755.1,286046986.2,N
1591182756.0,286046986.2,N
1591182775.8,286046985.5,N
1591182795.6,286046986.5,N
1591182815.5,286046982.1,N
1591182835.3,286046978.9,Y
1591182855.1,286046990.1,P
1591182875.9,286046992.6,P
1591182895.7,286046992.2,P
1591182915.6,286046991.6,Y
1591182935.4,286046999.9,P
1591182955.2,286047001.0,N
1591182975.1,286047000.2,N
1591182976.0,286047000.2,N
1591182995.8,286046998.6,N
1591183015.7,286046996.6,N
1591183035.5,286046999.2,N
1591183055.3,286046997.3,N
1591183075.2,286046995.2,N
1591183095.0,286046988.8,Y
1591183095.9,286046988.8,P
1591183115.7,286046988.2,N
1591183135.6,286046986.3,P
1591183155.4,286046985.3,Y
1591183175.3,286047001.1,P
1591183195.1,286047001.4,N
1591183196.0,286047001.4,N
1591183215.8,286047003.4,N
1591183235.7,286047003.4,N
1591183255.5,286047001.4,N
1591183275.3,286047002.9,N
1591183295.2,286046999.0,N
1591183315.0,286047001.2,N
1591183315.9,286047001.2,N
1591183335.8,286046995.7,N
1591183355.6,286046992.9,N
1591183375.4,286046992.0,N
1591183395.3,286046997.8,N
1591183415.1,286046997.7,N
1591183435.8,286046996.9,N
1591183455.7,286046999.4,N
1591183475.5,286046999.3,N
1591183495.4,286046999.6,N
1591183515.2,286046997.7,N
1591183535.0,286046993.8,N
1591183535.9,286046993.8,N
1591183555.8,286046996.3,N
1591183575.6,286046998.0,N
1591183595.4,286046996.9,N
1591183615.3,286047000.4,N
1591183635.1,286047001.5,N
1591183655.9,286047004.3,N
1591183675.7,286047002.2,N
1591183695.5,286046996.7,N
1591183715.4,286047001.2,N
1591183735.2,286047000.9,N
1591183755.0,286046999.1,N
1591183755.9,286046999.1,N
1591183775.8,286047001.2,N
1591183795.6,286046999.7,N
1591183815.5,286047000.2,N
1591183835.3,286047000.3,N
1591183855.1,286046995.3,N
1591183875.9,286046994.7,N
1591183895.7,286046994.1,N
1591183915.5,286046992.7,N
1591183935.4,286046990.4,Y
1591183955.2,286046995.8,P
1591183975.1,286046997.1,N
1591183976.0,286046997.1,P
1591183995.8,286046997.1,Y
1591184015.6,286047000.0,P
1591184035.5,286046999.5,N
1591184055.3,286046996.5,N
1591184075.2,286046999.2,N
1591184095.9,286046995.1,Y
1591184115.7,286046998.1,P
1591184135.6,286046999.1,P
1591184155.4,286046998.3,P
1591184175.2,286047000.5,N
1591184195.1,286047000.1,N
1591184196.0,286047000.1,N
1591184215.8,286047003.1,Y
1591184235.7,286047009.3,P
1591184255.5,286047013.8,N
1591184275.3,286047013.7,N
1591184295.2,286047017.1,N
1591184315.0,286047018.2,N
1591184315.9,286047018.2,N
1591184335.7,286047017.3,N
1591184355.6,286047021.1,Y
1591184375.4,286047011.9,P
1591184395.3,286047011.1,P
1591184415.1,286047013.3,P
1591184416.0,286047013.3,Y
1591184435.8,286047004.2,P
1591184455.7,286047003.0,N
1591184475.5,286047004.3,N
1591184495.4,286047000.3,N
1591184515.2,286047002.7,N
1591184535.0,286046998.5,N
1591184535.9,286046998.5,N
1591184555.8,286046996.5,N
1591184575.6,286046997.6,N
1591184595.4,286046997.4,N
1591184615.3,286046997.9,N
1591184635.1,286046997.4,N
1591184655.8,286046997.0,N
1591184675.7,286046997.3,N
1591184695.5,286046994.9,N
1591184715.4,286046997.2,N
1591184735.2,286046997.2,N
1591184755.0,286046995.9,N
1591184755.9,286046995.9,N
1591184775.8,286046995.8,N
1591184795.6,286046996.3,N
1591184815.4,286046993.2,N
1591184835.3,286046986.2,Y
1591184855.1,286046983.2,P
1591184875.9,286046985.2,N
1591184895.7,286046981.7,N
1591184915.5,286046981.6,N
1591184935.4,286046980.5,Y
1591184955.2,286047000.5,P
1591184975.1,286047003.1,N
1591184976.0,286047003.1,N
1591184995.8,286047004.2,N
1591185015.6,286047003.7,N
1591185035.5,286047003.9,N
1591185055.3,286047000.1,N
1591185075.1,286047000.7,N
1591185095.9,286046998.4,N
1591185115.7,286046999.5,N
1591185135.6,286046995.4,N
1591185155.4,286046994.0,N
1591185175.2,286046992.9,N
1591185225.1,286046991.4,E
1591185235.0,286046994.0,N
1591185235.9,286046994.0,P
1591185255.8,286046996.9,P
1591185275.6,286046996.0,N
1591185295.4,286046994.3,Y
1591185315.3,286046996.6,P
1591185335.1,286046997.4,P
1591185355.9,286046994.4,P
1591185375.7,286046985.3,Y
1591185395.5,286046990.7,P
1591185415.4,286046990.5,P
1591185435.2,286046993.0,N
1591185455.0,286046994.4,N
1591185455.9,286046994.4,N
1591185475.8,286046991.7,Y
1591185495.6,286046999.9,P
1591185515.5,286047002.8,N
1591185535.3,286047002.1,N
1591185555.1,286047003.9,N
1591185575.9,286047003.9,N
1591185595.7,286047002.6,N
